Location: Sternwarte Stuttgart
(48.7824°N, 9.1965°E)
Time: 12:43:39
(UTC+00:00)

Daily predictions for brighter satellites

Satellite Brightness Start Highest point End
(mag) Time Altitude Azimuth Time Altitude Azimuth Time Altitude Azimuth
NOSS 2-3 (D) 4.1 16:00:02 10° SW 16:04:48 77° NW 16:10:35 10° NE
Cosmos 1655 Rocket 4.1 16:00:01 10° N 16:06:25 71° ENE 16:12:48 10° SSE
SMAP 3.5 16:02:41 10° SE 16:07:00 40° ENE 16:11:22 10° N
Cosmos 1812 3.8 16:03:52 10° SSW 16:07:36 46° WNW 16:11:22 10° N
CSL-04 Rocket 3.8 16:02:44 10° SE 16:08:02 54° ENE 16:13:25 10° N
Cosmos 724 4.2 16:03:49 10° NW 16:09:38 72° NE 16:15:26 10° SE
Cosmos 1484 Rocket 3.3 16:06:17 10° SE 16:10:03 41° ENE 16:13:51 10° N
Okean 1 3.3 16:09:24 10° S 16:13:22 89° W 16:17:22 10° N
NOSS 3-2 (A) 4.0 16:06:09 10° NW 16:13:29 72° NE 16:21:35 10° SE
Ariane Rocket 3.1 16:11:38 10° SE 16:16:31 52° ENE 16:21:26 10° N
COSMOS 2441 4.5 16:11:40 10° SSE 16:16:35 87° WSW 16:21:30 10° NNW
Meteor 1-18 Rocket 4.4 16:11:06 10° SSW 16:16:43 82° WNW 16:22:28 10° N
Cosmos 2369 Rocket 4.2 16:13:42 10° W 16:17:38 19° NW 16:21:35 10° N
Cosmos 1898 Rocket 4.1 16:12:50 10° SW 16:17:59 58° WNW 16:23:12 10° NNE
Cosmos 1697 Rocket 3.9 16:15:11 10° SSE 16:19:23 22° E 16:23:34 10° NE
IRAS Rocket 4.2 16:14:34 10° SSE 16:20:00 67° ENE 16:25:27 10° NNW
NOSS 3-2 (C) 4.0 16:15:00 10° NW 16:22:16 66° NE 16:30:19 10° SE
ALOS 3.5 16:19:37 10° ESE 16:22:59 20° ENE 16:26:23 10° NNE
ATLAS 3B R/B 3.0 16:17:50 10° NW 16:24:32 71° SW 16:31:02 10° SSE
Cosmos 1937 Rocket 3.8 16:19:52 10° SSW 16:25:01 67° WNW 16:30:10 10° NNE
Cosmos 1455 Rocket 3.0 16:21:22 10° N 16:25:50 75° E 16:30:12 10° SSE
Cosmos 1269 Rocket 4.1 16:22:06 10° NNW 16:27:21 56° ENE 16:32:33 10° SE
Cosmos 1125 Rocket 4.0 16:24:45 10° S 16:29:41 41° ESE 16:34:37 10° NE
Cosmos 1544 Rocket 3.5 16:25:58 10° N 16:30:21 89° ENE 16:34:42 10° S
Cosmos 2082 3.7 16:25:09 10° NNW 16:30:49 85° ENE 16:36:27 10° SSE
Cosmos 1975 3.9 16:26:55 10° NNW 16:30:51 49° W 16:34:47 10° S
ATLAS 2AS CENTAUR R/B 3.1 16:24:08 10° SW 16:32:02 87° SE 16:40:14 10° NE
Meteor 1-28 Rocket 3.9 16:29:50 10° NNE 16:33:20 34° E 16:36:47 10° SSE
Cosmos 1048 Rocket 4.0 16:28:08 10° NNW 16:33:34 75° ENE 16:38:56 10° SSE
USA 161 2.4 16:34:26 10° N 16:37:18 52° WNW 16:40:15 10° SSW
Cosmos 372 Rocket 4.3 16:33:01 10° S 16:37:57 45° ESE 16:42:48 10° NE
Meteor 1-19 Rocket 4.3 16:33:34 10° S 16:39:15 73° E 16:45:06 10° NNE
Cosmos 2227 Rocket 2.6 16:35:32 10° NNW 16:41:10 67° WSW 16:46:46 10° SSE
YAOGAN 1 2.8 16:37:14 10° SE 16:41:20 44° ENE 16:45:28 10° N
USA 215 3.6 16:36:48 10° SE 16:43:19 72° SW 16:49:53 10° WNW
CORIOLIS 4.1 16:37:57 10° SSE 16:43:21 75° ENE 16:48:44 10° NNW
Cosmos 1743 3.7 16:42:37 10° NNW 16:46:24 50° W 16:50:10 10° S
Cosmos 2279 Rocket 4.2 16:40:21 10° SSW 16:46:37 76° W 16:52:54 10° N
NOSS 3-4 (A) 4.1 16:48:06 10° S 16:53:42 36° ESE 16:57:37 19° ENE
NOSS 3-4 (C) 4.1 16:48:12 10° S 16:53:47 36° ESE 16:57:40 19° ENE
Cosmos 1943 Rocket 4.4 16:50:44 10° WNW 16:54:20 17° NW 16:57:57 10° N
COSMO-SKYMED 1 3.4 16:52:08 17° NE 16:54:38 29° E 16:58:26 10° SSE
Meteor 2-9 Rocket 4.2 16:49:34 10° NNW 16:55:07 85° W 17:00:29 10° S
SJ 16-02 1.3 16:52:50 10° S 16:57:11 66° ESE 17:00:50 15° NNE
Cosmos 1980 Rocket 3.1 16:56:21 10° SSE 17:01:04 28° ESE 17:03:12 22° ENE
ERS-2 2.6 16:57:56 10° SE 17:01:20 38° ENE 17:04:46 10° N
Landsat 4 4.3 17:00:50 23° NE 17:02:34 36° E 17:06:07 10° SSE
CENTAUR R/B 3.1 16:55:29 10° NW 17:03:01 58° NE 17:11:15 10° ESE
CZ-4 R/B 1.4 17:01:05 10° S 17:04:59 78° WSW 17:09:00 10° NNW
Cosmos 1656 3.6 17:01:47 10° SSW 17:07:19 71° ESE 17:11:36 17° NNE
Cosmos 2297 Rocket 3.2 17:01:54 10° NW 17:07:22 50° WSW 17:12:47 10° S
Meteor 1-23 Rocket 4.2 17:09:18 10° S 17:14:59 69° E 17:20:38 10° NNE
DNEPR-1 R/B 4.0 17:10:48 10° NW 17:15:44 78° NE 17:21:45 10° SE
Cosmos 1025 Rocket 3.2 17:14:35 10° SSE 17:18:43 48° E 17:20:33 29° NE
MOS 1 4.2 17:15:16 10° SSE 17:20:57 77° ENE 17:26:38 10° NNW
NOAA 12 4.0 17:16:43 10° SSE 17:21:54 61° ENE 17:27:05 10° N
CZ-2C R/B 3.7 17:18:19 10° NNE 17:23:01 87° ESE 17:27:46 10° SSW
Abrixas rocket 2.1 17:20:13 10° W 17:23:29 84° S 17:23:59 61° ESE
Cosmos 2084 3.8 17:19:58 10° SSW 17:23:49 40° SE 17:24:17 38° ESE
Okean 2 3.3 17:23:24 10° S 17:27:25 59° E 17:28:49 37° NE
Nadezhda 2 Rocket 4.4 17:21:13 10° N 17:27:34 82° E 17:33:58 10° S
Cosmos 2227 4.2 17:23:47 10° NNW 17:29:31 62° ENE 17:35:11 10° SE
Okean 1-7 Rocket 3.7 17:26:49 10° SSE 17:31:04 50° E 17:31:58 43° NE
Cosmos 1536 Rocket 4.4 17:27:43 10° SSW 17:31:56 49° WNW 17:36:09 10° N
Cosmos 2263 Rocket 2.7 17:36:03 10° NNW 17:40:56 36° NE 17:40:56 36° NE
Meteor 2-4 Rocket 4.4 17:36:34 10° SSW 17:41:49 51° WNW 17:47:02 10° N
FENGYUN 3A 3.6 17:36:29 10° SSE 17:41:52 89° ENE 17:47:16 10° NNW
SKYMED 2 3.4 17:40:45 30° NNE 17:42:53 87° ESE 17:47:14 10° SSW
SL-16 R/B 4.0 17:40:41 10° SSE 17:41:53 15° SE 17:41:53 15° SE
Cosmos 1606 Rocket 3.3 17:42:14 10° N 17:46:36 72° E 17:50:55 10° SSE
Cosmos 2322 Rocket 4.1 17:44:26 10° SSE 17:45:27 14° SE 17:45:27 14° SE
Cosmos 2278 4.3 17:44:01 10° SW 17:49:37 56° WNW 17:53:23 21° NNE
Cosmos 2369 4.3 17:44:13 10° SW 17:49:46 54° NW 17:53:37 20° NNE
Cosmos 2360 4.2 17:49:48 10° SSW 17:55:27 63° ESE 17:56:32 53° ENE
Cosmos 494 Rocket 4.5 17:51:47 10° NNW 17:56:59 61° WSW 18:02:09 10° S
SPOT 3 Rocket 3.8 17:52:48 10° S 17:57:57 67° WSW 18:03:07 10° NNW
ALOS 2.8 17:55:25 10° S 18:00:01 60° W 18:04:40 10° NNW
Cosmos 1697 Rocket 2.9 17:57:12 10° SW 18:02:49 68° WNW 18:05:20 34° NNE
COSMOS 2455 3.6 17:57:34 10° NNW 18:02:14 34° NNE 18:02:14 34° NNE
Cosmos 2251 Rocket 3.6 17:59:28 10° NNW 18:04:47 76° WSW 18:10:01 10° SSE
S3M 3.8 18:05:18 10° S 18:11:19 66° E 18:12:02 61° ENE
Cosmos 1386 Rocket 4.4 18:12:54 10° N 18:19:17 71° ENE 18:20:25 58° SE
RESURS DK-1 3.9 18:17:12 10° SSW 18:19:19 29° SSW 18:19:19 29° SSW
ATLAS 2AS CENTAUR R/B 4.0 18:16:34 10° W 18:24:00 39° NNW 18:27:44 26° NNE
COSMO-SKYMED 1 4.2 18:29:21 26° NNW 18:30:48 33° WNW 18:34:40 10° SW
SJ 16-02 3.8 18:33:13 10° W 18:36:15 18° NW 18:37:53 15° NNW
Gbstr 26 Del rocket 4.1 18:34:37 10° WSW 18:42:32 82° NNW 18:42:51 80° NNE
Cosmos 1553 Rocket 4.2 18:37:32 10° SSW 18:43:56 69° WNW 18:46:45 35° N
NOSS 3-4 (A) 3.9 18:38:10 10° WSW 18:44:20 58° NW 18:45:05 54° NNW
NOSS 3-4 (C) 3.9 18:38:14 10° WSW 18:44:25 58° NW 18:45:09 55° NNW
Cosmos 1980 Rocket 2.7 18:39:09 10° SW 18:44:44 56° WNW 18:45:00 56° NW
Cosmos 1745 Rocket 4.5 18:47:08 10° NNW 18:53:12 57° W 18:59:18 10° S
CENTAUR R/B 3.8 18:46:21 10° NW 18:53:52 51° WSW 19:00:09 17° S
Cosmos 2263 Rocket 3.9 19:19:57 10° NW 19:22:41 27° NW 19:22:41 27° NW
SL-16 R/B 4.5 19:22:48 10° SW 19:23:49 16° SW 19:23:49 16° SW
